Location: Baili�vre
(50.0696°N, 4.2409°E)
Time: 17:51:04
(UTC+00:00)

Meteor 1-27 Rocket - Pass Details

Date: 08 August 2020
Orbit: 830 x 909 km, 81.3° (Epoch: 25 September)

Event Time Altitude Azimuth Distance (km) Brightness Sun altitude
Rises 20:22:07 0° 347° (NNW) 3,523 7.9 -10.0°
Reaches altitude 10° 20:24:34 10° 347° (NNW) 2,587 7.1 -10.3°
Maximum altitude 20:30:30 88° 258° (WSW) 915 3.9 -11.1°
Drops below altitude 10° 20:36:26 10° 171° (S) 2,589 5.8 -11.8°
Enters shadow 20:36:55 - 171° (S) 2,771 5.9 -11.8°
